Location: Asheville, NC
(35.6000°N, 82.5500°W)
Time: 00:09:00
(UTC-04:00)

RS-15 - Pass Details

Date: 17 March 2018
Orbit: 1890 x 2154 km, 64.8° (Epoch: 22 June)

Event Time Altitude Azimuth Distance (km) Brightness Sun altitude
Exits shadow 04:31:29 - 308° (NW) 5,261 10.1 -37.3°
Reaches altitude 10° 04:35:58 10° 326° (NW) 4,599 9.9 -36.5°
Maximum altitude 04:41:26 14° 354° (N) 4,244 10.0 -35.5°
Drops below altitude 10° 04:46:49 10° 22° (NNE) 4,505 10.4 -34.6°
Sets 04:53:06 0° 47° (NE) 5,444 11.3 -33.4°
